Location: Naloco
(16.5478°S, 37.1017°E)
Time: 01:40:48
(UTC+00:00)

Cosmos 1743 Rocket - Pass Details

Date: 13 August 2020
Orbit: 603 x 633 km, 82.6° (Epoch: 23 September)

Event Time Altitude Azimuth Distance (km) Brightness Sun altitude
Rises 16:04:47 0° 182° (S) 2,893 6.9 -10.7°
Reaches altitude 10° 16:07:00 10° 181° (S) 1,986 6.0 -11.2°
Maximum altitude 16:11:24 77° 95° (E) 640 3.5 -12.2°
Drops below altitude 10° 16:15:48 10° 8° (N) 1,984 6.2 -13.3°
Sets 16:18:01 0° 7° (N) 2,888 7.1 -13.8°
